sat.trackr.live / text

‹ back to catalog

STARLINK-35871

NORAD 66566 · 2025-268K

PAYLOAD ACTIVE UNKNOWN

§ Identity

Operator
Country
US
Launch date
2025-11-21
Launch site
AFETR
Launch vehicle
Mass (kg)
RCS (m²)

Purposes: comms

External: N2YO · Heavens-Above · Gunter

§ Orbital elements

Epoch: 2026-09-20T11:35:54.026016Z

Period
94.27 min
Inclination
43.0032°
Eccentricity
0.0001397
Mean motion
15.27590114 rev/d
Perigee alt
482.1 km
Apogee alt
484.0 km
Semi-major
6,861.2 km
B*
5.0991e-4
RAAN
326.7337°
Arg perigee
266.9920°
Mean anomaly
93.0771°
Rev number
4,775

§ Raw data

STARLINK-358711 66566U 25268K   26263.48326419  .00013800  00000+0  50991-3 0  99962 66566  43.0032 326.7337 0001397 266.9920  93.0771 15.27590114 47753

JSON: /api/v1/satellites/66566 · /tle

For live sub-satellite position, see the globe view (requires WebGL).

§ Visibility from observer

Set your observer location to see the next 7 days of passes ≥ 10°. The values pass through the URL so the page stays shareable.

No JS? Fill the form by hand. The geolocation button needs JavaScript.